Tracking 33057 objects as of 24-Jan-2026
HD Live streaming from Space Station
objects crossing your sky now

ION SCV-010

Track ION SCV-010 now!
10-day predictions
ION SCV-010 is classified as:


NORAD ID: 56192
Int'l Code: 2023-054Q
Perigee: 489.9 km
Apogee: 508.5 km
Inclination: 97.4 °
Period: 94.5 minutes
Semi major axis: 6870 km
RCS: Unknown
Launch date: April 15, 2023
Source: Italy (IT)
Launch site: AIR FORCE WESTERN TEST RANGE (AFWTR)

Uplink (MHz):
Downlink (MHz): 401.415
Beacon (MHz):
Mode: 1200bps FSK
Call sign:
Status: Active

Your satellite tracking list
Your tracking list is empty




NASA's NSSDC Master Catalog

Two Line Element Set (TLE):
1 56192U 23054Q   26023.65331924  .00009003  00000-0  36722-3 0  9998
2 56192  97.3968 274.9761 0013499   2.5746 357.5558 15.24580996154167
Source of the keplerian elements: AFSPC